When you browse on this site, cookies collect data to enhance your experience and personalize the content and advertising you see.
Visit our Privacy Policy to learn more. By continuing to use the site, you agree to this use of cookies and data.
  • In Hungary
  • List of Countries
  • For 7 days
  • Water Temperature
  • Weather Map
  • News
  • Weather Widgets
  • user-avatar
    Login

    Hourly Weather Bangarmau

    Today, 17 August, Saturday

    Time Temperature Precipitation Wind Pressure Humidity
    00:00 +30°C° 0 mm 4 mps 738 mmHg 73%
    01:00 +30°C° 0 mm 4 mps 738 mmHg 73%
    02:00 +30°C° 0 mm 4 mps 738 mmHg 74%
    03:00 +30°C° 0.1 mm 4 mps 738 mmHg 76%
    04:00 +29°C° 0.1 mm 4 mps 738 mmHg 77%
    05:00 +29°C° 0 mm 3 mps 738 mmHg 79%
    06:00 +30°C° 0 mm 3 mps 738 mmHg 77%
    07:00 +30°C° 0 mm 4 mps 739 mmHg 76%
    08:00 +30°C° 0 mm 4 mps 739 mmHg 74%
    09:00 +33°C° 0 mm 4 mps 739 mmHg 68%
    10:00 +34°C° 0 mm 4 mps 739 mmHg 62%
    11:00 +36°C° 0 mm 4 mps 739 mmHg 56%
    12:00 +36°C° 0.1 mm 4 mps 738 mmHg 54%
    13:00 +37°C° 0.1 mm 4 mps 738 mmHg 51%
    14:00 +38°C° 0.1 mm 4 mps 737 mmHg 49%
    15:00 +37°C° 0 mm 4 mps 737 mmHg 51%
    16:00 +37°C° 0 mm 4 mps 737 mmHg 53%
    17:00 +36°C° 0 mm 4 mps 736 mmHg 55%
    18:00 +35°C° 0.1 mm 4 mps 737 mmHg 59%
    19:00 +34°C° 0.1 mm 4 mps 738 mmHg 64%
    20:00 +33°C° 0.1 mm 4 mps 738 mmHg 69%
    21:00 +32°C° 0 mm 4 mps 738 mmHg 71%
    22:00 +30°C° 0 mm 4 mps 739 mmHg 73%
    23:00 +30°C° 0 mm 4 mps 739 mmHg 74%

    Tomorrow, 18 August, Sunday

    Time Temperature Precipitation Wind Pressure Humidity
    00:00 +30°C° 0 mm 4 mps 739 mmHg 75%
    01:00 +29°C° 0 mm 3 mps 739 mmHg 76%
    02:00 +29°C° 0 mm 3 mps 739 mmHg 76%
    03:00 +29°C° 0 mm 3 mps 739 mmHg 77%
    04:00 +28°C° 0 mm 2 mps 739 mmHg 78%
    05:00 +28°C° 0 mm 2 mps 739 mmHg 79%
    06:00 +29°C° 0 mm 2 mps 739 mmHg 75%
    07:00 +30°C° 0 mm 3 mps 740 mmHg 71%
    08:00 +33°C° 0 mm 3 mps 740 mmHg 67%
    09:00 +34°C° 0 mm 3 mps 740 mmHg 63%
    10:00 +35°C° 0 mm 3 mps 740 mmHg 59%
    11:00 +36°C° 0 mm 3 mps 740 mmHg 55%
    12:00 +37°C° 0 mm 3 mps 739 mmHg 54%
    13:00 +37°C° 0 mm 3 mps 739 mmHg 53%
    14:00 +37°C° 0 mm 3 mps 738 mmHg 52%
    15:00 +37°C° 0.2 mm 3 mps 738 mmHg 53%
    16:00 +37°C° 0.2 mm 2 mps 737 mmHg 54%
    17:00 +36°C° 0.2 mm 2 mps 737 mmHg 56%
    18:00 +36°C° 0 mm 2 mps 738 mmHg 58%
    19:00 +35°C° 0 mm 2 mps 738 mmHg 60%
    20:00 +33°C° 0 mm 1 mps 738 mmHg 63%
    21:00 +33°C° 0 mm 1 mps 739 mmHg 64%
    22:00 +32°C° 0 mm 2 mps 739 mmHg 66%
    23:00 +32°C° 0 mm 2 mps 739 mmHg 67%

    Day after tomorrow, 19 August, Monday

    Time Temperature Precipitation Wind Pressure Humidity
    00:00 +32°C° 0.1 mm 2 mps 739 mmHg 69%
    01:00 +31°C° 0.1 mm 2 mps 738 mmHg 70%
    02:00 +31°C° 0.1 mm 2 mps 738 mmHg 72%
    03:00 +31°C° 0 mm 2 mps 738 mmHg 72%
    04:00 +30°C° 0 mm 1 mps 738 mmHg 73%
    05:00 +30°C° 0 mm 1 mps 738 mmHg 73%
    06:00 +31°C° 0 mm 1 mps 739 mmHg 68%
    07:00 +34°C° 0 mm 2 mps 739 mmHg 63%
    08:00 +35°C° 0 mm 2 mps 740 mmHg 58%
    09:00 +36°C° 0.1 mm 2 mps 740 mmHg 53%
    10:00 +37°C° 0.1 mm 2 mps 740 mmHg 48%
    11:00 +39°C° 0.1 mm 2 mps 740 mmHg 43%
    12:00 +38°C° 0 mm 2 mps 739 mmHg 46%
    13:00 +37°C° 0 mm 3 mps 739 mmHg 49%
    14:00 +37°C° 0 mm 3 mps 738 mmHg 52%
    15:00 +36°C° 0.2 mm 3 mps 738 mmHg 57%
    16:00 +34°C° 0.2 mm 3 mps 737 mmHg 62%
    17:00 +33°C° 0.2 mm 3 mps 737 mmHg 68%
    18:00 +32°C° 0 mm 2 mps 737 mmHg 68%
    19:00 +32°C° 0 mm 2 mps 738 mmHg 69%
    20:00 +32°C° 0 mm 1 mps 738 mmHg 69%
    21:00 +31°C° 0 mm 1 mps 738 mmHg 70%
    22:00 +31°C° 0 mm 1 mps 738 mmHg 70%
    23:00 +31°C° 0 mm 1 mps 738 mmHg 71%

    20 August, Tuesday

    Time Temperature Precipitation Wind Pressure Humidity
    00:00 +31°C° 0.3 mm 1 mps 738 mmHg 72%
    01:00 +31°C° 0.3 mm 1 mps 738 mmHg 74%
    02:00 +30°C° 0.3 mm 1 mps 738 mmHg 75%
    03:00 +30°C° 1.3 mm 1 mps 738 mmHg 77%
    04:00 +30°C° 1.3 mm 2 mps 738 mmHg 79%
    05:00 +30°C° 1.3 mm 2 mps 738 mmHg 80%
    06:00 +30°C° 0.1 mm 2 mps 738 mmHg 79%
    07:00 +31°C° 0.1 mm 2 mps 739 mmHg 77%
    08:00 +31°C° 0.1 mm 2 mps 739 mmHg 75%
    09:00 +34°C° 0.1 mm 2 mps 739 mmHg 68%
    10:00 +35°C° 0.1 mm 2 mps 739 mmHg 62%
    11:00 +37°C° 0.1 mm 2 mps 739 mmHg 55%
    12:00 +38°C° 0 mm 2 mps 738 mmHg 52%
    13:00 +38°C° 0 mm 2 mps 738 mmHg 48%
    14:00 +39°C° 0 mm 1 mps 737 mmHg 45%
    15:00 +38°C° 0.1 mm 2 mps 737 mmHg 49%
    16:00 +37°C° 0.1 mm 2 mps 736 mmHg 54%
    17:00 +36°C° 0.1 mm 3 mps 736 mmHg 58%
    18:00 +35°C° 0.7 mm 2 mps 736 mmHg 62%
    19:00 +34°C° 0.7 mm 2 mps 736 mmHg 67%
    20:00 +32°C° 0.7 mm 1 mps 737 mmHg 71%
    21:00 +32°C° 0.2 mm 1 mps 737 mmHg 73%
    22:00 +32°C° 0.2 mm 1 mps 737 mmHg 75%
    23:00 +31°C° 0.2 mm 1 mps 737 mmHg 76%

    21 August, Wednesday

    Time Temperature Precipitation Wind Pressure Humidity
    00:00 +31°C° 0 mm 1 mps 737 mmHg 77%
    01:00 +31°C° 0 mm 1 mps 737 mmHg 78%
    02:00 +31°C° 0 mm 1 mps 736 mmHg 79%
    03:00 +31°C° 1.8 mm 1 mps 736 mmHg 80%
    04:00 +30°C° 1.8 mm 1 mps 736 mmHg 82%
    05:00 +30°C° 1.8 mm 1 mps 736 mmHg 83%
    06:00 +31°C° 1.5 mm 2 mps 737 mmHg 80%
    07:00 +31°C° 1.5 mm 2 mps 737 mmHg 77%
    08:00 +33°C° 1.5 mm 3 mps 738 mmHg 73%
    09:00 +33°C° 0.5 mm 3 mps 738 mmHg 72%
    10:00 +33°C° 0.5 mm 3 mps 738 mmHg 70%
    11:00 +32°C° 0.5 mm 2 mps 738 mmHg 69%
    12:00 +34°C° 0.1 mm 2 mps 738 mmHg 64%
    13:00 +35°C° 0.1 mm 3 mps 737 mmHg 60%
    14:00 +36°C° 0.1 mm 3 mps 737 mmHg 56%
    15:00 +35°C° 0 mm 3 mps 736 mmHg 61%
    16:00 +34°C° 0 mm 3 mps 736 mmHg 66%
    17:00 +33°C° 0 mm 3 mps 736 mmHg 72%
    18:00 +32°C° 0 mm 2 mps 736 mmHg 73%
    19:00 +31°C° 0 mm 2 mps 736 mmHg 75%
    20:00 +31°C° 0 mm 2 mps 736 mmHg 77%
    21:00 +30°C° 0 mm 2 mps 737 mmHg 77%
    22:00 +30°C° 0 mm 1 mps 737 mmHg 77%
    23:00 +30°C° 0 mm 1 mps 737 mmHg 77%

    22 August, Thursday

    Time Temperature Precipitation Wind Pressure Humidity
    00:00 +30°C° 0 mm 1 mps 737 mmHg 78%
    01:00 +30°C° 0 mm 1 mps 736 mmHg 78%
    02:00 +28°C° 0 mm 0 mps 736 mmHg 79%
    03:00 +29°C° 0.1 mm 1 mps 736 mmHg 79%
    04:00 +29°C° 0.1 mm 1 mps 736 mmHg 79%
    05:00 +29°C° 0.1 mm 1 mps 737 mmHg 79%
    06:00 +30°C° 0.1 mm 2 mps 737 mmHg 77%
    07:00 +31°C° 0.1 mm 2 mps 738 mmHg 75%
    08:00 +31°C° 0.1 mm 2 mps 738 mmHg 72%
    09:00 +34°C° 0 mm 3 mps 738 mmHg 68%
    10:00 +35°C° 0 mm 3 mps 738 mmHg 64%
    11:00 +36°C° 0 mm 3 mps 738 mmHg 60%
    12:00 +36°C° 0 mm 4 mps 737 mmHg 58%
    13:00 +37°C° 0 mm 4 mps 736 mmHg 57%
    14:00 +37°C° 0 mm 4 mps 735 mmHg 55%
    15:00 +36°C° 0.1 mm 4 mps 735 mmHg 59%
    16:00 +35°C° 0.1 mm 4 mps 735 mmHg 64%
    17:00 +35°C° 0.1 mm 4 mps 735 mmHg 68%
    18:00 +34°C° 0 mm 3 mps 735 mmHg 72%
    19:00 +32°C° 0 mm 2 mps 735 mmHg 76%
    20:00 +31°C° 0 mm 2 mps 736 mmHg 80%
    21:00 +31°C° 0 mm 2 mps 736 mmHg 81%
    22:00 +31°C° 0 mm 2 mps 736 mmHg 81%
    23:00 +31°C° 0 mm 2 mps 736 mmHg 81%
    Show more